TimeCDT,TemperatureF,Dew PointF,Humidity,Sea Level PressureIn,VisibilityMPH,Wind Direction,Wind SpeedMPH,Gust SpeedMPH,PrecipitationIn,Events,Conditions,WindDirDegrees,DateUTC
12:53 AM,59.0,28.0,31,29.69,10.0,SSW,3.5,-,N/A,,Clear,210,2013-03-18 05:53:00
1:53 AM,57.9,28.0,32,29.70,10.0,Calm,Calm,-,N/A,,Clear,0,2013-03-18 06:53:00
2:53 AM,57.0,21.0,25,29.70,10.0,West,6.9,-,N/A,,Clear,260,2013-03-18 07:53:00
3:53 AM,61.0,17.1,18,29.69,10.0,West,9.2,-,N/A,,Clear,280,2013-03-18 08:53:00
4:53 AM,60.1,14.0,16,29.69,10.0,West,8.1,-,N/A,,Clear,270,2013-03-18 09:53:00
5:53 AM,55.0,14.0,20,29.73,10.0,WNW,8.1,-,N/A,,Clear,300,2013-03-18 10:53:00
6:53 AM,52.0,15.1,23,29.77,10.0,WNW,6.9,-,N/A,,Clear,290,2013-03-18 11:53:00
7:53 AM,53.1,15.1,22,29.80,10.0,WNW,9.2,-,N/A,,Clear,300,2013-03-18 12:53:00
8:53 AM,52.0,16.0,24,29.83,10.0,NW,6.9,-,N/A,,Clear,310,2013-03-18 13:53:00
9:53 AM,59.0,21.0,23,29.87,10.0,NNE,23.0,-,N/A,,Clear,20,2013-03-18 14:53:00
10:53 AM,60.1,25.0,26,29.92,10.0,NNE,13.8,-,N/A,,Clear,20,2013-03-18 15:53:00
11:53 AM,62.1,28.9,29,29.94,10.0,NNE,11.5,-,N/A,,Clear,30,2013-03-18 16:53:00
12:53 PM,64.0,30.0,28,29.94,10.0,North,8.1,-,N/A,,Clear,10,2013-03-18 17:53:00
1:53 PM,66.9,28.9,24,29.92,10.0,NE,6.9,-,N/A,,Clear,40,2013-03-18 18:53:00
2:53 PM,69.1,25.0,19,29.89,10.0,Calm,Calm,-,N/A,,Clear,0,2013-03-18 19:53:00
3:53 PM,72.0,23.0,16,29.85,10.0,Variable,4.6,-,N/A,,Clear,0,2013-03-18 20:53:00
4:53 PM,73.0,18.0,12,29.84,10.0,WNW,5.8,-,N/A,,Clear,300,2013-03-18 21:53:00
5:53 PM,73.9,18.0,12,29.83,10.0,Variable,3.5,-,N/A,,Clear,0,2013-03-18 22:53:00
6:53 PM,75.0,17.1,11,29.82,10.0,Variable,4.6,-,N/A,,Clear,0,2013-03-18 23:53:00
7:53 PM,72.0,16.0,12,29.83,10.0,South,5.8,-,N/A,,Clear,190,2013-03-19 00:53:00
8:53 PM,64.9,17.1,16,29.85,10.0,SSE,5.8,-,N/A,,Clear,150,2013-03-19 01:53:00
9:53 PM,61.0,18.0,19,29.86,10.0,SSE,8.1,-,N/A,,Clear,150,2013-03-19 02:53:00
10:53 PM,63.0,21.0,20,29.87,10.0,SSE,9.2,-,N/A,,Clear,160,2013-03-19 03:53:00
11:53 PM,61.0,21.0,21,29.88,10.0,SSE,10.4,-,N/A,,Clear,160,2013-03-19 04:53:00